QPF
0.00 0.00 0.00 0.00 0.00 0.00 0.00 0.00 0.00 0.00 0.00 0.00 0.00 0.00 0.00 0.00 0.00 0.00 0.00 0.00 0.00 0.00 0.00 0.00 0.00 0.00 0.00 0.00 0.00 0.00 0.00 0.00 0.00 0.00 0.00 0.00 0.00 0.00 0.00 0.00 0.00 0.00 0.00 0.00 0.00
0.00 0.00 0.00 0.00 0.00 0.00 0.00 0.00 0.00 0.00 0.00 0.00 0.00 0.00 0.00 0.00 0.00 0.00 0.00 0.00 0.00 0.00 0.00 0.00 0.00 0.00 0.00 0.00 0.00 0.00 0.00 0.00 0.00 0.00 0.00 0.00 0.00 0.00 0.00 0.00 0.00 0.00 0.00 0.00 0.00
0.00 0.00 0.00 0.00 0.00 0.00 0.00 0.00 0.00 0.00 0.00 0.00 0.00 0.00 0.00 0.00 0.00 0.00 0.00 0.00 0.00 0.00 0.00 0.00 0.00 0.00 0.00 0.00 0.00 0.00 0.00 0.00 0.00 0.00 0.00 0.00 0.00 0.00 0.00 0.00 0.00 0.00 0.00 0.00 0.00
0.00 0.00 0.00 0.00 0.00 0.00 0.00 0.00 0.00 0.00 0.00 0.00 0.00 0.00 0.00 0.00 0.00 0.00 0.00 0.00 0.00 0.00 0.00 0.00 0.00 0.00 0.00 0.00 0.00 0.00 0.00 0.00 0.00 0.00 0.00 0.00 0.00 0.00 0.00 0.00 0.00 0.00 0.00 0.00 0.00
0.00 0.00 0.00 0.00 0.00 0.00 0.00 0.00 0.00 0.00 0.00 0.00 0.00 0.00 0.00 0.00 0.00 0.00 0.00 0.00 0.00 0.00 0.00 0.00 0.00 0.00 0.00 0.00 0.00 0.00 0.00 0.00 0.00 0.00 0.00 0.00 0.00 0.00 0.00 0.00 0.00 0.00 0.00 0.00 0.00
0.00 0.00 0.00 0.00 0.00 0.00 0.00 0.00 0.00 0.00 0.00 0.00 0.00 0.00 0.00 0.00 0.00 0.00 0.00 0.00 0.00 0.00 0.00 0.00 0.00 0.00 0.00 0.00 0.00 0.00 0.00 0.00 0.00 0.00 0.00 0.00 0.00 0.00 0.00 0.00 0.00 0.00 0.00 0.00 0.00
0.00 0.00 0.00 0.00 0.00 0.00 0.00 0.00 0.00 0.00 0.00 0.00 0.00 0.00 0.00 0.00 0.00 0.00 0.00 0.00 0.00 0.00 0.00 0.00 0.00 0.00 0.00 0.00 0.00 0.00 0.00 0.00 0.00 0.00 0.00 0.00 0.00 0.00 0.00 0.00 0.00 0.00 0.00 0.00 0.00
0.00 0.00 0.00 0.00 0.00 0.00 0.00 0.00 0.00 0.00 0.00 0.00 0.00 0.00 0.00 0.00 0.00 0.00 0.00 0.00 0.00 0.00 0.00 0.00 0.00 0.00 0.00 0.00 0.00 0.00 0.00 0.00 0.00 0.00 0.00 0.00 0.00 0.00 0.00 0.00 0.00 0.00 0.00 0.00 0.00
0.00 0.00 0.00 0.00 0.00 0.00 0.00 0.00 0.00 0.00 0.00 0.00 0.00 0.00 0.00 0.00 0.00 0.00 0.00 0.00 0.00 0.00 0.00 0.00 0.00 0.00 0.00 0.00 0.00 0.00 0.00 0.00 0.00 0.00 0.00 0.00 0.00 0.00 0.00 0.00 0.00 0.00 0.00 0.00 0.00
0.00 0.00 0.00 0.00 0.00 0.00 0.00 0.00 0.00 0.00 0.00 0.00 0.00 0.00 0.00 0.00 0.00 0.00 0.00 0.00 0.00 0.00 0.00 0.00 0.00 0.00 0.00 0.00 0.00 0.00 0.00 0.00 0.00 0.00 0.00 0.00 0.00 0.00 0.00 0.00 0.00 0.00 0.00 0.00 0.00
0.00 0.00 0.00 0.00 0.00 0.00 0.00 0.00 0.00 0.00 0.00 0.00 0.00 0.00 0.00 0.00 0.00 0.00 0.00 0.00 0.00 0.00 0.00 0.00 0.00 0.00 0.00 0.00 0.00 0.00 0.00 0.00 0.00 0.00 0.00 0.00 0.00 0.00 0.00 0.00 0.00 0.00 0.00 0.00 0.00
0.00 0.00 0.00 0.00 0.00 0.00 0.00 0.00 0.00 0.00 0.00 0.00 0.00 0.00 0.00 0.00 0.00 0.00 0.00 0.00 0.00 0.00 0.00 0.00 0.00 0.00 0.00 0.00 0.00 0.00 0.00 0.00 0.00 0.00 0.00 0.00 0.00 0.00 0.00 0.00 0.00 0.00 0.00 0.00 0.00
0.00 0.00 0.00 0.00 0.00 0.00 0.00 0.00 0.00 0.00 0.00 0.00 0.00 0.00 0.00 0.00 0.00 0.00 0.00 0.00 0.00 0.00 0.00 0.00 0.00 0.00 0.00 0.00 0.00 0.00 0.00 0.00 0.00 0.00 0.00 0.00 0.00 0.00 0.00 0.00 0.00 0.00 0.00 0.00 0.00
0.00 0.00 0.00 0.00 0.00 0.00 0.00 0.00 0.00 0.00 0.00 0.00 0.00 0.00 0.00 0.00 0.00 0.00 0.00 0.00 0.00 0.00 0.00 0.00 0.00 0.00 0.00 0.00 0.00 0.00 0.00 0.00 0.00 0.00 0.00 0.00 0.00 0.00 0.00 0.00 0.00 0.00 0.00 0.00 0.00
0.06 0.00 0.00 0.00 0.00 0.00 0.00 0.00 0.00 0.00 0.00 0.00 0.00 0.00 0.00 0.00 0.00 0.00 0.00 0.00 0.00 0.00 0.00 0.00 0.00 0.00 0.00 0.00 0.00 0.00 0.00 0.00 0.00 0.00 0.00 0.00 0.00 0.00 0.00 0.00 0.00 0.00 0.00 0.00 0.00
0.23 0.05 0.00 0.00 0.00 0.00 0.00 0.00 0.00 0.00 0.00 0.00 0.00 0.00 0.00 0.00 0.00 0.00 0.00 0.00 0.00 0.00 0.00 0.00 0.00 0.00 0.00 0.00 0.00 0.00 0.00 0.00 0.00 0.00 0.00 0.00 0.00 0.00 0.00 0.00 0.00 0.00 0.00 0.00 0.00
0.42 0.21 0.03 0.00 0.00 0.00 0.00 0.00 0.00 0.00 0.00 0.00 0.00 0.00 0.00 0.00 0.00 0.00 0.00 0.00 0.00 0.00 0.00 0.00 0.00 0.00 0.00 0.00 0.00 0.00 0.00 0.00 0.00 0.00 0.00 0.00 0.00 0.00 0.00 0.00 0.00 0.00 0.00 0.00 0.00
0.31 0.42 0.11 0.01 0.00 0.00 0.00 0.00 0.00 0.00 0.00 0.00 0.00 0.00 0.00 0.00 0.00 0.00 0.00 0.00 0.00 0.00 0.00 0.00 0.00 0.00 0.00 0.00 0.00 0.00 0.00 0.00 0.00 0.00 0.00 0.00 0.00 0.00 0.00 0.00 0.00 0.00 0.00 0.00 0.00
0.30 0.59 0.26 0.04 0.00 0.00 0.00 0.00 0.00 0.00 0.00 0.00 0.00 0.00 0.00 0.00 0.00 0.00 0.00 0.00 0.00 0.00 0.00 0.00 0.00 0.00 0.00 0.00 0.00 0.00 0.00 0.00 0.00 0.00 0.00 0.00 0.00 0.00 0.00 0.00 0.00 0.00 0.00 0.00 0.00
0.31 0.52 0.34 0.09 0.04 0.02 0.03 0.02 0.00 0.00 0.00 0.00 0.00 0.00 0.00 0.00 0.00 0.00 0.00 0.00 0.00 0.00 0.00 0.00 0.00 0.00 0.00 0.00 0.00 0.00 0.00 0.00 0.00 0.00 0.00 0.00 0.00 0.00 0.00 0.00 0.00 0.00 0.00 0.00 0.00
0.29 0.44 0.32 0.16 0.15 0.15 0.09 0.01 0.00 0.00 0.00 0.00 0.00 0.00 0.00 0.00 0.00 0.00 0.00 0.00 0.00 0.00 0.00 0.00 0.00 0.00 0.00 0.00 0.00 0.00 0.00 0.00 0.00 0.00 0.00 0.00 0.00 0.00 0.00 0.00 0.00 0.00 0.00 0.00 0.00
0.25 0.39 0.34 0.24 0.34 0.35 0.10 0.00 0.00 0.00 0.00 0.00 0.00 0.00 0.00 0.00 0.00 0.00 0.00 0.00 0.00 0.00 0.00 0.00 0.00 0.00 0.00 0.00 0.00 0.00 0.00 0.00 0.00 0.00 0.00 0.00 0.00 0.00 0.00 0.00 0.00 0.00 0.00 0.00 0.00
0.26 0.31 0.37 0.51 0.41 0.18 0.02 0.00 0.00 0.00 0.00 0.00 0.00 0.00 0.00 0.00 0.00 0.00 0.00 0.00 0.00 0.00 0.00 0.00 0.00 0.00 0.00 0.00 0.00 0.00 0.00 0.00 0.00 0.00 0.00 0.00 0.00 0.00 0.00 0.00 0.00 0.00 0.00 0.00 0.00
0.20 0.27 0.41 0.48 0.24 0.04 0.00 0.00 0.00 0.00 0.00 0.00 0.00 0.00 0.00 0.00 0.00 0.00 0.00 0.00 0.00 0.00 0.00 0.00 0.00 0.00 0.00 0.00 0.00 0.00 0.00 0.00 0.00 0.00 0.00 0.00 0.00 0.00 0.00 0.00 0.00 0.00 0.00 0.00 0.00
0.09 0.16 0.22 0.33 0.11 0.03 0.00 0.00 0.00 0.00 0.00 0.00 0.00 0.00 0.00 0.00 0.00 0.00 0.00 0.00 0.00 0.00 0.00 0.00 0.00 0.00 0.00 0.00 0.00 0.00 0.00 0.00 0.00 0.00 0.00 0.00 0.00 0.00 0.00 0.00 0.00 0.00 0.00 0.00 0.00
0.02 0.05 0.11 0.13 0.06 0.03 0.05 0.02 0.00 0.00 0.00 0.00 0.00 0.00 0.00 0.00 0.00 0.00 0.00 0.00 0.00 0.00 0.00 0.00 0.00 0.00 0.00 0.00 0.00 0.00 0.00 0.00 0.00 0.00 0.00 0.00 0.00 0.00 0.00 0.00 0.00 0.00 0.00 0.00 0.00
0.00 0.01 0.05 0.07 0.09 0.15 0.12 0.04 0.00 0.00 0.00 0.00 0.00 0.00 0.00 0.00 0.00 0.00 0.00 0.00 0.00 0.00 0.00 0.00 0.00 0.00 0.00 0.00 0.00 0.00 0.00 0.00 0.00 0.00 0.00 0.00 0.00 0.00 0.00 0.00 0.00 0.00 0.00 0.00 0.00
MSLP
1019.77 1019.44 1018.96 1019.01 1018.89 1018.84 1018.77 1018.53 1018.09 1018.14 1018.12 1017.83 1017.54 1017.23 1017.01 1016.76 1016.64 1016.62 1016.89 1017.01 1016.90 1016.48 1016.41 1016.40 1016.04 1016.09 1016.18 1016.92 1017.50 1017.90 1018.89 1019.68 1019.59 1019.76 1019.08 1019.08 1019.35 1019.41 1019.41 1019.62 1019.83 1019.62 1019.49 1019.43 1019.76
1019.80 1019.53 1019.12 1018.91 1018.82 1018.77 1018.74 1018.60 1018.22 1017.98 1018.03 1017.68 1017.51 1017.31 1017.06 1016.87 1016.77 1016.83 1016.85 1016.66 1016.48 1016.43 1016.32 1016.34 1016.37 1016.33 1017.05 1017.58 1018.00 1018.37 1019.30 1019.14 1019.16 1019.21 1019.37 1019.31 1019.34 1019.47 1019.67 1019.82 1019.74 1019.49 1019.38 1019.55 1019.85
1019.78 1019.48 1019.16 1019.12 1018.90 1018.52 1018.67 1018.62 1018.24 1018.07 1017.93 1017.69 1017.31 1017.14 1016.90 1016.83 1016.94 1017.01 1016.75 1016.49 1016.33 1016.37 1016.50 1016.29 1016.41 1016.51 1017.26 1017.92 1018.56 1018.84 1019.19 1019.22 1019.29 1019.35 1019.47 1019.68 1019.71 1019.65 1019.80 1019.70 1019.20 1019.11 1019.10 1019.51 1019.75
1019.70 1019.48 1019.10 1019.11 1019.27 1018.46 1018.11 1018.60 1018.31 1017.99 1017.89 1017.73 1017.39 1017.09 1016.78 1016.76 1017.28 1016.84 1016.66 1016.25 1016.10 1016.25 1016.48 1016.30 1016.56 1017.12 1017.58 1018.23 1018.65 1019.08 1019.30 1019.33 1019.48 1019.55 1019.70 1019.72 1019.81 1019.93 1019.78 1018.90 1018.72 1018.90 1019.18 1019.42 1019.57
1019.46 1019.43 1018.98 1019.17 1019.13 1018.75 1018.12 1018.19 1018.23 1017.81 1017.77 1017.67 1017.32 1017.17 1016.93 1016.92 1016.90 1016.73 1016.45 1016.24 1016.19 1016.26 1016.57 1016.50 1016.91 1017.59 1017.74 1018.41 1018.79 1018.93 1019.32 1019.49 1019.54 1019.58 1019.66 1019.70 1019.73 1019.86 1019.07 1018.66 1018.78 1019.23 1019.34 1019.41 1019.49
1019.16 1019.31 1018.96 1019.08 1019.13 1018.78 1018.18 1018.12 1018.05 1017.73 1017.51 1017.43 1017.12 1017.10 1017.30 1017.30 1016.81 1016.65 1016.53 1016.25 1016.53 1016.38 1016.78 1016.63 1016.81 1017.57 1018.11 1018.59 1018.95 1019.11 1019.13 1019.29 1019.44 1019.47 1019.52 1019.63 1019.41 1019.41 1018.30 1018.19 1018.57 1019.04 1019.14 1019.25 1019.46
1018.99 1019.17 1018.94 1018.82 1018.99 1018.86 1018.21 1017.82 1018.04 1017.76 1017.24 1017.28 1017.11 1017.11 1017.20 1017.15 1016.82 1016.78 1016.55 1016.49 1016.66 1016.44 1016.82 1016.87 1017.09 1018.13 1018.45 1018.75 1019.36 1019.20 1019.39 1019.27 1019.37 1019.45 1019.53 1019.65 1019.37 1018.89 1017.95 1018.39 1018.64 1018.77 1018.86 1019.00 1019.11
1018.81 1018.70 1018.72 1018.95 1018.76 1018.67 1018.04 1017.65 1017.86 1017.61 1017.28 1017.05 1016.90 1017.20 1016.95 1016.73 1016.84 1016.74 1016.80 1016.70 1016.56 1016.58 1017.07 1016.97 1017.31 1018.16 1019.03 1019.02 1019.62 1019.62 1019.57 1019.63 1019.43 1019.61 1019.66 1019.78 1018.62 1017.79 1017.84 1018.41 1018.64 1018.87 1018.92 1018.98 1018.90
1018.43 1018.54 1018.43 1018.62 1018.58 1018.50 1017.96 1017.44 1017.38 1017.45 1017.12 1017.20 1017.09 1017.06 1017.04 1016.69 1016.88 1017.04 1017.02 1017.06 1016.83 1016.82 1017.42 1017.10 1017.87 1019.36 1019.72 1019.46 1020.24 1020.17 1020.03 1019.95 1019.70 1020.05 1020.13 1020.13 1018.81 1017.73 1017.85 1018.38 1018.55 1018.62 1018.79 1018.99 1018.82
1018.04 1018.21 1018.27 1018.26 1018.35 1018.09 1017.79 1017.15 1017.10 1017.26 1017.38 1017.27 1017.32 1017.48 1017.07 1016.87 1016.91 1016.96 1017.15 1016.70 1017.35 1017.13 1017.60 1017.90 1018.73 1019.76 1020.38 1020.27 1020.62 1020.35 1020.16 1020.13 1020.38 1020.49 1020.45 1020.15 1018.71 1017.92 1017.75 1018.04 1017.94 1018.13 1018.46 1018.64 1018.60
1017.62 1017.74 1018.18 1018.04 1018.02 1017.90 1017.77 1017.30 1017.80 1017.72 1017.62 1017.03 1017.21 1017.00 1017.01 1017.08 1017.19 1017.21 1017.17 1016.98 1017.46 1017.95 1018.28 1018.98 1019.58 1020.03 1020.38 1020.48 1020.45 1020.50 1020.41 1020.68 1020.39 1020.89 1021.02 1019.97 1019.05 1017.26 1017.13 1017.24 1017.42 1017.65 1017.99 1018.08 1018.17
1017.30 1017.57 1017.81 1017.78 1017.83 1018.02 1018.03 1017.80 1017.49 1017.59 1017.12 1016.83 1017.03 1017.00 1017.01 1017.08 1017.31 1017.27 1017.35 1017.23 1017.86 1018.73 1018.91 1019.68 1019.98 1020.46 1020.54 1020.63 1020.74 1020.83 1020.92 1020.96 1020.83 1021.08 1021.44 1020.19 1018.37 1017.12 1016.83 1016.84 1017.11 1017.13 1017.40 1017.64 1017.86
1016.89 1017.23 1017.40 1017.59 1017.84 1018.03 1017.79 1017.45 1017.37 1017.40 1017.60 1016.95 1016.80 1016.74 1016.68 1017.21 1017.22 1017.44 1017.35 1017.23 1018.20 1019.34 1019.69 1019.97 1020.53 1020.58 1020.77 1021.10 1021.15 1021.32 1021.36 1021.43 1021.84 1021.41 1021.37 1020.73 1018.30 1016.87 1016.48 1016.52 1016.63 1016.64 1016.89 1017.36 1017.70
1016.33 1016.79 1017.19 1017.43 1018.17 1017.78 1017.64 1017.31 1017.27 1017.39 1018.08 1016.86 1016.87 1016.54 1016.61 1016.88 1017.52 1017.64 1017.47 1017.37 1018.63 1019.58 1020.39 1020.82 1020.95 1021.02 1021.17 1021.50 1021.70 1022.00 1021.93 1022.07 1022.17 1022.10 1022.05 1021.29 1019.50 1017.16 1016.53 1016.19 1016.14 1016.26 1016.72 1017.18 1017.64
1015.62 1016.11 1016.95 1017.26 1017.34 1017.64 1017.16 1017.11 1017.34 1017.45 1018.49 1016.66 1016.81 1016.89 1016.70 1016.98 1017.67 1017.76 1017.72 1017.53 1018.84 1020.22 1020.94 1021.42 1021.36 1021.62 1021.74 1021.95 1022.17 1022.54 1022.58 1022.78 1022.72 1022.57 1022.48 1021.59 1020.78 1016.99 1016.37 1015.90 1015.91 1016.20 1016.57 1016.83 1017.22
1015.03 1015.63 1016.46 1017.31 1017.36 1016.92 1017.05 1017.16 1017.59 1018.65 1017.58 1016.71 1016.65 1016.69 1017.09 1017.07 1017.52 1018.06 1017.89 1018.10 1019.23 1020.34 1021.05 1021.92 1021.86 1021.94 1022.18 1022.45 1022.53 1022.87 1023.02 1023.13 1023.16 1023.03 1022.76 1021.79 1020.92 1017.42 1016.24 1015.67 1015.99 1016.22 1016.44 1016.66 1016.99
1014.70 1015.29 1015.81 1016.10 1016.24 1016.39 1017.08 1017.68 1018.92 1018.30 1016.91 1016.84 1016.62 1016.56 1016.79 1017.30 1017.71 1017.79 1018.11 1018.47 1018.93 1020.41 1021.46 1022.17 1022.39 1022.47 1022.48 1022.80 1023.10 1023.15 1023.33 1023.63 1023.84 1023.56 1023.07 1021.87 1020.91 1016.78 1015.42 1015.38 1015.79 1016.34 1016.44 1016.55 1016.90
1014.00 1014.65 1015.24 1015.51 1015.67 1015.95 1017.18 1018.49 1018.23 1016.56 1016.18 1016.15 1016.14 1016.47 1016.65 1016.77 1017.51 1017.68 1018.04 1018.42 1018.56 1018.96 1021.06 1021.81 1022.68 1022.78 1022.98 1022.95 1023.04 1023.27 1023.30 1023.75 1024.45 1025.08 1023.31 1021.88 1019.70 1016.04 1015.14 1015.04 1015.49 1016.11 1016.17 1016.45 1016.83
1013.72 1013.98 1015.16 1015.55 1015.44 1015.42 1017.33 1018.27 1015.99 1015.63 1014.95 1015.48 1016.11 1016.14 1016.51 1016.53 1016.72 1017.34 1017.62 1017.61 1017.23 1017.72 1018.62 1020.57 1022.34 1023.07 1023.32 1023.41 1023.43 1023.44 1023.49 1023.49 1024.40 1025.78 1024.20 1021.13 1018.47 1015.51 1014.93 1014.75 1014.95 1015.58 1016.06 1016.40 1016.72
1014.24 1013.91 1014.20 1015.07 1015.53 1015.63 1017.79 1016.79 1015.51 1014.61 1014.45 1014.39 1014.53 1014.62 1015.29 1015.95 1016.45 1016.95 1017.08 1015.79 1016.23 1016.51 1017.18 1018.51 1021.58 1023.48 1023.75 1023.81 1023.66 1023.42 1023.41 1023.70 1024.04 1024.91 1024.20 1021.28 1019.19 1016.24 1014.99 1014.54 1014.59 1015.13 1015.77 1016.14 1016.57
1014.22 1013.94 1013.51 1014.15 1015.74 1016.05 1016.44 1015.66 1014.79 1013.87 1013.71 1013.62 1013.66 1014.11 1014.35 1014.84 1015.21 1015.90 1015.83 1015.28 1015.36 1016.58 1017.01 1018.07 1019.39 1023.75 1023.94 1023.73 1023.44 1023.92 1023.52 1023.72 1023.96 1024.26 1023.97 1022.45 1018.66 1015.65 1014.91 1014.54 1014.65 1015.02 1015.63 1015.90 1016.36
1013.85 1014.27 1014.14 1013.62 1015.63 1016.13 1014.92 1014.41 1014.04 1013.38 1013.37 1013.04 1012.98 1013.17 1013.43 1013.92 1014.45 1015.18 1015.18 1015.40 1014.71 1015.62 1016.95 1017.32 1019.31 1022.54 1023.42 1023.53 1023.54 1023.35 1022.98 1022.91 1023.62 1024.70 1024.50 1023.06 1018.48 1015.60 1015.18 1015.00 1015.17 1015.21 1015.61 1015.91 1016.22
1013.92 1014.68 1014.47 1013.87 1013.85 1014.73 1014.57 1014.08 1013.84 1013.18 1012.83 1012.62 1012.52 1012.36 1012.76 1013.21 1013.94 1014.32 1014.74 1015.41 1015.11 1015.47 1015.79 1016.64 1018.25 1021.56 1023.21 1023.85 1023.66 1023.29 1022.70 1022.58 1022.78 1023.36 1023.75 1022.64 1018.18 1015.55 1015.35 1015.25 1015.09 1015.33 1015.48 1015.81 1016.21
1014.45 1015.02 1015.10 1014.83 1013.66 1013.36 1013.83 1013.54 1013.38 1012.68 1012.40 1012.08 1011.83 1011.97 1012.58 1013.09 1013.21 1014.52 1015.31 1015.78 1015.72 1015.69 1015.66 1016.06 1017.51 1018.60 1020.26 1020.35 1020.61 1022.20 1022.07 1022.36 1022.28 1023.30 1022.53 1020.62 1017.63 1016.08 1015.46 1015.35 1015.16 1015.30 1015.31 1015.58 1016.24
1014.26 1014.27 1014.06 1014.22 1013.98 1013.40 1012.98 1012.14 1012.53 1012.02 1011.73 1011.78 1011.81 1011.38 1011.73 1012.89 1013.61 1014.45 1015.32 1015.93 1016.04 1015.99 1016.16 1016.56 1017.74 1018.72 1019.95 1020.34 1019.98 1020.17 1020.86 1021.51 1021.55 1020.75 1020.64 1018.43 1017.55 1014.88 1014.85 1015.02 1014.81 1014.83 1014.97 1015.33 1015.58
1013.83 1014.23 1014.61 1013.93 1013.28 1013.26 1012.75 1011.60 1011.04 1011.34 1010.96 1011.11 1011.00 1010.93 1011.12 1011.42 1011.82 1013.55 1014.48 1015.03 1015.00 1016.31 1016.58 1016.93 1018.15 1018.75 1020.56 1020.67 1020.19 1019.96 1019.95 1020.50 1020.65 1020.31 1019.22 1017.96 1015.88 1014.21 1013.56 1014.03 1014.38 1014.43 1014.78 1014.91 1015.05
1013.29 1013.58 1013.41 1012.84 1012.60 1012.61 1011.50 1010.80 1010.66 1011.17 1010.23 1009.63 1009.90 1010.65 1010.76 1010.55 1011.31 1012.57 1013.84 1013.95 1014.49 1015.15 1016.47 1017.27 1018.31 1019.00 1020.45 1020.58 1019.95 1019.55 1017.81 1018.33 1018.66 1018.13 1017.29 1017.02 1013.56 1013.18 1013.09 1013.54 1013.57 1013.40 1013.92 1014.13 1014.31
Thickness
5658 5661 5668 5667 5669 5668 5669 5671 5675 5675 5675 5679 5682 5686 5688 5691 5691 5691 5687 5688 5688 5691 5692 5692 5695 5693 5692 5684 5678 5673 5657 5648 5657 5645 5660 5656 5654 5653 5653 5651 5647 5647 5647 5647 5639
5652 5655 5661 5664 5666 5665 5665 5666 5670 5672 5672 5676 5678 5680 5684 5686 5687 5684 5686 5687 5688 5688 5690 5689 5687 5687 5675 5675 5669 5663 5649 5658 5655 5652 5653 5651 5652 5650 5648 5644 5643 5644 5644 5640 5634
5645 5650 5655 5655 5659 5664 5661 5662 5666 5667 5669 5671 5676 5678 5682 5683 5682 5680 5683 5685 5686 5685 5684 5686 5684 5682 5673 5668 5660 5655 5653 5653 5652 5650 5649 5647 5644 5645 5641 5641 5645 5644 5645 5636 5630
5639 5643 5648 5650 5648 5659 5663 5657 5661 5664 5665 5667 5671 5674 5679 5680 5675 5679 5680 5684 5685 5684 5681 5682 5679 5671 5664 5663 5658 5658 5649 5649 5648 5646 5644 5644 5641 5640 5636 5648 5648 5643 5640 5635 5629
5633 5636 5642 5643 5644 5649 5657 5657 5656 5662 5662 5663 5667 5669 5673 5674 5673 5677 5680 5682 5682 5682 5677 5677 5671 5662 5662 5656 5655 5653 5647 5645 5644 5644 5643 5641 5639 5637 5637 5642 5639 5634 5633 5630 5626
5627 5629 5636 5637 5637 5642 5651 5652 5653 5657 5660 5661 5665 5666 5666 5665 5672 5674 5676 5679 5675 5677 5671 5673 5669 5662 5654 5652 5651 5647 5646 5644 5643 5643 5641 5639 5640 5639 5649 5643 5640 5634 5630 5626 5620
5620 5620 5627 5632 5631 5634 5644 5650 5647 5651 5658 5658 5660 5663 5663 5663 5667 5669 5672 5673 5671 5674 5667 5667 5664 5655 5651 5649 5641 5643 5643 5642 5640 5641 5639 5635 5640 5633 5643 5637 5636 5634 5630 5624 5620
5612 5618 5620 5621 5626 5629 5638 5644 5643 5647 5652 5656 5658 5657 5657 5663 5663 5665 5665 5667 5668 5668 5661 5662 5657 5649 5643 5643 5634 5635 5633 5636 5638 5636 5634 5636 5647 5652 5640 5636 5637 5629 5624 5619 5617
5604 5609 5614 5617 5620 5624 5632 5639 5642 5641 5647 5647 5651 5653 5653 5658 5658 5658 5660 5660 5662 5661 5654 5657 5649 5635 5633 5634 5626 5621 5633 5629 5633 5620 5626 5627 5637 5645 5638 5632 5627 5627 5620 5615 5611
5601 5602 5606 5611 5613 5620 5624 5633 5637 5637 5638 5642 5643 5644 5649 5652 5653 5655 5654 5659 5652 5654 5649 5646 5631 5625 5613 5621 5619 5631 5628 5624 5620 5622 5618 5616 5629 5635 5636 5629 5630 5624 5616 5612 5609
5595 5599 5598 5603 5608 5613 5619 5625 5624 5628 5631 5637 5640 5643 5644 5645 5646 5648 5648 5653 5648 5640 5636 5630 5630 5628 5627 5619 5617 5617 5618 5616 5618 5606 5603 5607 5611 5638 5635 5625 5618 5618 5615 5613 5610
5587 5589 5591 5597 5601 5602 5609 5615 5620 5624 5627 5632 5633 5635 5638 5639 5642 5644 5644 5648 5642 5630 5628 5625 5628 5616 5612 5614 5613 5612 5613 5611 5608 5601 5595 5601 5624 5627 5630 5632 5624 5624 5621 5615 5611
5579 5581 5584 5588 5589 5593 5601 5608 5611 5615 5615 5626 5627 5631 5635 5634 5638 5636 5640 5643 5634 5623 5622 5624 5615 5611 5614 5608 5611 5606 5610 5607 5601 5590 5588 5580 5630 5637 5637 5629 5628 5626 5623 5616 5609
5572 5573 5574 5577 5578 5585 5591 5598 5603 5606 5567 5619 5617 5626 5627 5630 5631 5628 5632 5637 5623 5618 5611 5611 5603 5609 5609 5608 5602 5610 5592 5591 5592 5592 5604 5579 5615 5629 5627 5627 5632 5627 5617 5610 5604
5564 5566 5564 5564 5571 5574 5585 5588 5591 5595 5544 5614 5607 5615 5619 5624 5621 5622 5623 5631 5618 5606 5608 5609 5600 5603 5606 5602 5590 5598 5582 5582 5582 5583 5578 5588 5585 5621 5618 5636 5633 5626 5618 5613 5605
5558 5556 5555 5554 5557 5565 5569 5573 5577 5551 5542 5583 5595 5603 5609 5616 5616 5611 5618 5614 5605 5603 5591 5587 5587 5591 5591 5581 5582 5574 5578 5571 5565 5569 5561 5583 5582 5618 5624 5633 5626 5621 5617 5613 5607
5545 5543 5547 5549 5555 5555 5553 5555 5538 5522 5571 5577 5583 5596 5608 5603 5607 5610 5608 5605 5600 5588 5579 5586 5585 5579 5580 5585 5576 5576 5576 5563 5582 5567 5587 5565 5564 5618 5630 5625 5620 5617 5610 5610 5604
5537 5535 5536 5539 5544 5545 5538 5530 5515 5539 5564 5580 5582 5589 5602 5603 5602 5601 5600 5602 5602 5604 5558 5592 5595 5576 5571 5577 5586 5576 5580 5567 5572 5573 5579 5561 5589 5626 5621 5620 5610 5601 5601 5602 5601
5526 5527 5524 5527 5532 5533 5519 5506 5540 5554 5577 5576 5583 5580 5591 5598 5600 5601 5593 5594 5608 5597 5612 5581 5581 5562 5562 5561 5565 5572 5564 5562 5517 5464 5532 5586 5601 5620 5623 5621 5617 5606 5603 5602 5600
5509 5515 5519 5516 5515 5517 5491 5531 5537 5562 5568 5578 5590 5585 5575 5585 5595 5589 5586 5613 5619 5603 5609 5604 5575 5547 5553 5555 5557 5562 5557 5560 5530 5567 5562 5573 5584 5609 5630 5630 5628 5621 5613 5606 5602
5490 5503 5512 5507 5498 5497 5495 5519 5537 5553 5565 5568 5571 5571 5587 5586 5592 5589 5600 5613 5609 5592 5598 5580 5589 5541 5545 5544 5555 5545 5539 5547 5548 5538 5539 5531 5599 5600 5617 5624 5625 5617 5609 5603 5600
5477 5483 5489 5496 5476 5467 5504 5516 5537 5548 5546 5560 5566 5575 5579 5581 5582 5586 5595 5597 5597 5592 5598 5591 5570 5537 5547 5534 5537 5544 5565 5561 5556 5537 5489 5510 5581 5612 5601 5606 5608 5605 5600 5598 5597
5456 5456 5466 5471 5482 5481 5493 5511 5524 5536 5540 5548 5556 5566 5571 5572 5579 5580 5582 5569 5578 5589 5592 5587 5566 5538 5550 5537 5529 5537 5547 5553 5541 5529 5510 5541 5587 5602 5592 5601 5604 5599 5599 5596 5594
5433 5439 5436 5438 5466 5488 5490 5496 5507 5523 5536 5542 5552 5554 5557 5552 5560 5557 5561 5556 5566 5576 5585 5586 5547 5589 5595 5596 5560 5525 5535 5544 5546 5516 5532 5546 5589 5601 5585 5585 5603 5597 5591 5589 5584
5413 5426 5435 5448 5450 5469 5486 5503 5501 5515 5526 5528 5534 5550 5554 5532 5528 5538 5537 5543 5554 5564 5566 5571 5570 5524 5514 5536 5571 5560 5533 5532 5541 5562 5574 5584 5563 5609 5586 5590 5600 5596 5597 5589 5583
5400 5410 5411 5430 5442 5448 5459 5488 5507 5509 5515 5525 5528 5544 5546 5548 5558 5533 5531 5538 5561 5541 5552 5547 5539 5521 5522 5500 5520 5541 5527 5531 5530 5518 5539 5532 5572 5601 5611 5597 5585 5593 5589 5592 5593
5393 5399 5410 5427 5431 5436 5460 5481 5492 5495 5514 5534 5540 5531 5535 5551 5546 5536 5527 5534 5541 5539 5534 5536 5516 5542 5529 5480 5509 5532 5562 5543 5542 5549 5573 5565 5615 5610 5606 5603 5601 5604 5598 5595 5594